[[{"header":{"parameterUnit":"m.s-1","parameterCategory":1,"la1":30.2991,"la2":30.254,"lo1":-89.0895,"lo2":-89.0444,"dy":0.0017,"dx":0.0017,"nx":28,"ny":28,"refTime":"2023-07-20T09:00:00:Z","depth":0,"parameterNumber":2,"parameterNumberName":"U-component_of_WINDS"},"data":[0,0,0,0,0,0,0,0,0,0,0,0,0,0,0,0,0,0,0,0,0,0,0,0,0,0,0,0,0,0,0,0,0,0,0,0,0,0,0,0,0,0,0,0,0,0,0,0,0,0,0,0,0,0,0,0,0,0,1.0324,1.0325,0,1.0457,1.0458,1.046,1.0505,1.0505,1.0504,1.0503,1.0644,1.0648,1.0652,0,0,0,0,0,0,0,0,0,0,0,0,0,1.0112,1.0116,1.0324,1.0325,1.0327,1.0456,1.0458,1.046,1.0505,1.0505,1.0504,1.0503,1.0643,1.0648,1.0653,0,0,0,0,0,0,0,0,0,0,0,0,0,1.022,1.0117,1.0323,1.0365,1.037,1.0456,1.0458,1.0461,1.0505,1.0505,1.0504,1.0503,1.0641,1.0647,1.0653,1.0709,0,0,1.0673,1.0676,0,0,0,0,0,0,0,0,1.0214,1.0228,1.0357,1.0362,1.0368,1.0463,1.0435,1.0544,1.0506,1.0454,1.0503,1.0503,1.0585,1.0596,1.0623,1.0716,1.0722,1.0673,1.0677,1.068,1.0682,0,0,0,0,0,0,0,1.0207,1.0223,1.0376,1.0359,1.0366,1.0378,1.0393,1.0456,1.0523,1.0459,1.0462,1.0477,1.0588,1.0616,1.0626,1.0724,1.0673,1.0679,1.0683,1.0685,1.0869,1.087,0,0,0,0,0,0,1.0192,1.0216,1.0372,1.038,1.0287,1.0383,1.0399,1.0434,1.0522,1.0535,1.0478,1.0479,1.0606,1.0619,1.0631,1.0702,1.068,1.0686,1.069,1.0868,1.0869,1.087,0,0,0,0,0,0,1.0187,1.0205,1.0367,1.0299,1.0321,1.0387,1.0426,1.0437,1.0465,1.0536,1.0549,1.0494,1.0606,1.0622,1.0689,1.0707,1.0689,1.0695,1.0866,1.0868,1.0869,1.0843,0,0,0,0,0,0,1.0181,1.0203,1.0224,1.0299,1.0324,1.0421,1.0427,1.044,1.0476,1.0478,1.0555,1.0567,1.0606,1.0679,1.0695,1.0716,1.07,1.0865,1.0867,1.0869,1.0843,1.0844,1.0845,0,0,0,0,0,1.0173,1.0213,1.0225,1.0244,1.0352,1.0422,1.0436,1.0479,1.0477,1.0499,1.0545,1.0565,1.0703,1.0686,1.0704,1.0727,1.0864,1.0867,1.0869,1.0843,1.0844,1.0845,0,0,0,0,0,0,1.014,1.0223,1.0238,1.0303,1.0355,1.0429,1.0459,1.0479,1.0534,1.0534,1.0586,1.0603,1.0666,1.0703,1.0683,1.0785,1.0785,1.0791,1.0758,1.076,1.0761,1.0751,1.0705,0,0,0,0,0,1.0139,1.0188,1.0259,1.031,1.0335,1.0392,1.0424,1.0453,1.0509,1.0532,1.0582,1.0637,1.0693,1.0729,1.0784,1.0849,1.0866,1.0873,1.0874,1.0875,1.0879,1.0916,1.092,1.0878,1.0878,1.0878,0,0,1.014,1.0192,1.022,1.0304,1.0348,1.0398,1.041,1.0463,1.0502,1.054,1.0606,1.0644,1.071,1.0775,1.0806,1.0808,1.0895,1.0878,1.0877,1.0882,1.0919,1.0923,1.0926,1.0879,1.0879,1.0879,0,0,1.0167,1.0211,1.0258,1.0301,1.0366,1.0404,1.0415,1.0486,1.0513,1.0579,1.0609,1.0656,1.0751,1.0795,1.0831,1.0873,1.0894,1.089,1.0895,1.093,1.0933,1.0937,1.0952,1.0957,1.0895,1.0895,1.0895,0,1.016,1.0236,1.028,1.0331,1.0367,1.0403,1.0451,1.0491,1.0571,1.0596,1.0596,1.0715,1.0762,1.0838,1.0848,1.0875,1.089,1.0882,1.0929,1.0933,1.0937,1.0952,1.0957,1.0894,1.0894,1.0894,1.0894,0,1.0225,1.0277,1.0307,1.0381,1.0421,1.0471,1.0522,1.0557,1.0582,1.062,1.0687,1.0743,1.081,1.0831,1.0856,1.091,1.0909,1.0919,1.0919,1.0939,1.0954,1.096,1.0892,1.0893,1.0893,1.0893,0,0,1.0235,1.0332,1.0342,1.0376,1.0451,1.0492,1.0543,1.0607,1.0636,1.0691,1.0735,1.0814,1.0823,1.0863,1.0893,1.0924,1.0954,1.093,1.0932,1.0932,1.1017,1.1009,1.1015,1.0968,1.0969,1.097,1.1012,0,1.0271,1.0362,1.0402,1.0476,1.0525,1.0559,1.0604,1.0654,1.0691,1.0739,1.078,1.0834,1.0842,1.0866,1.0898,1.0943,1.0972,1.0941,1.1011,1.1012,1.0993,1.1023,1.1016,1.1052,1.1018,1.1019,1.102,0,1.0326,1.0378,1.0456,1.0524,1.0546,1.0585,1.0647,1.0691,1.075,1.0774,1.0818,1.0847,1.0903,1.0899,1.0977,1.0955,1.0986,1.1012,1.1014,1.1023,1.1017,1.1032,1.1065,1.107,1.1029,1.1029,1.1028,0,1.0325,1.0416,1.0474,1.0502,1.0582,1.0609,1.0644,1.0701,1.0737,1.0791,1.0815,1.0875,1.0909,1.0955,1.1,1.0993,1.1073,1.1073,1.1096,1.1094,1.1111,1.111,1.1149,1.1131,1.1131,1.1131,1.1131,0,1.0362,1.0408,1.0474,1.051,1.0563,1.0609,1.066,1.0698,1.0749,1.0793,1.0827,1.0868,1.0924,1.0973,1.1008,1.1067,1.1082,1.1104,1.1113,1.1101,1.1098,1.1122,1.1121,1.1132,1.1132,1.1132,1.1131,0,1.037,1.0416,1.0481,1.0552,1.057,1.0606,1.0667,1.0703,1.0741,1.0797,1.0812,1.0872,1.0931,1.098,1.1058,1.1081,1.1142,1.1153,1.1122,1.1127,1.1146,1.1143,1.1202,1.1212,1.1187,1.1187,1.1187,0,1.039,1.0426,1.05,1.0531,1.0565,1.0615,1.0651,1.0698,1.0735,1.0803,1.0831,1.0892,1.0943,1.1035,1.1086,1.1146,1.1158,1.1175,1.1167,1.1154,1.1158,1.1155,1.1159,1.1175,1.1175,1.1175,1.1175,0,1.042,1.0441,1.0491,1.0549,1.0591,1.0639,1.0689,1.0713,1.0769,1.0808,1.0868,1.0907,1.0985,1.1045,1.111,1.1147,1.1171,1.1177,1.1185,1.1173,1.1154,1.1164,1.1123,1.1175,1.1175,1.1175,1.1175,1.1175,1.0435,1.0469,1.0525,1.058,1.0622,1.0667,1.0704,1.0746,1.0796,1.0862,1.0887,1.0948,1.1006,1.1094,1.1132,1.1181,1.1184,1.1196,1.1199,1.1201,1.1199,1.1145,1.1193,1.1193,1.1193,1.1193,1.1193,0,1.0467,1.0505,1.0555,1.0622,1.0665,1.0682,1.0737,1.0772,1.0825,1.0876,1.0925,1.0993,1.1051,1.1106,1.1167,1.1196,1.1208,1.121,1.1209,1.1217,1.1193,1.118,1.1199,1.1199,1.1199,1.1199,1.1199,1.1199,1.0489,1.0547,1.0574,1.0652,1.0691,1.0749,1.0779,1.0821,1.0862,1.0936,1.0984,1.1019,1.1072,1.1137,1.1191,1.1206,1.1227,1.1226,1.1243,1.122,1.1219,1.1218,1.1205,1.123,1.123,1.1263,1.1264,1.1264]},{"header":{"parameterUnit":"m.s-1","parameterCategory":1,"la1":30.2991,"la2":30.254,"lo1":-89.0895,"lo2":-89.0444,"dy":0.0017,"dx":0.0017,"nx":28,"ny":28,"refTime":"2023-07-20T09:00:00:Z","depth":0,"parameterNumber":3,"parameterNumberName":"V-component_of_WINDS"},"data":[0,0,0,0,0,0,0,0,0,0,0,0,0,0,0,0,0,0,0,0,0,0,0,0,0,0,0,0,0,0,0,0,0,0,0,0,0,0,0,0,0,0,0,0,0,0,0,0,0,0,0,0,0,0,0,0,0,0,3.8549,3.8549,0,3.854,3.854,3.8539,3.8542,3.8542,3.8542,3.8543,3.8531,3.853,3.853,0,0,0,0,0,0,0,0,0,0,0,0,0,3.8567,3.8567,3.8549,3.8549,3.8549,3.854,3.854,3.8539,3.8542,3.8542,3.8542,3.8543,3.8531,3.853,3.853,0,0,0,0,0,0,0,0,0,0,0,0,0,3.8559,3.8567,3.8549,3.8549,3.8549,3.854,3.854,3.8539,3.8542,3.8542,3.8543,3.8543,3.8531,3.8531,3.853,3.8519,0,0,3.8528,3.8527,0,0,0,0,0,0,0,0,3.8559,3.8558,3.8549,3.8549,3.8549,3.8542,3.8542,3.8533,3.8542,3.8545,3.8543,3.8543,3.8534,3.8533,3.8531,3.8519,3.8518,3.8527,3.8527,3.8527,3.8526,0,0,0,0,0,0,0,3.856,3.8558,3.8545,3.8549,3.8549,3.8549,3.8548,3.854,3.8538,3.8544,3.8545,3.8544,3.8534,3.8532,3.8531,3.8518,3.8527,3.8527,3.8526,3.8526,3.8495,3.8494,0,0,0,0,0,0,3.8561,3.8559,3.8546,3.8545,3.8555,3.8548,3.8547,3.8544,3.8538,3.8537,3.8543,3.8544,3.8533,3.8531,3.853,3.8516,3.8527,3.8526,3.8526,3.8495,3.8495,3.8494,0,0,0,0,0,0,3.8561,3.856,3.8546,3.8552,3.855,3.8548,3.8544,3.8544,3.8541,3.8537,3.8537,3.8541,3.8533,3.8531,3.8522,3.8516,3.8526,3.8525,3.8496,3.8495,3.8495,3.8489,0,0,0,0,0,0,3.8562,3.856,3.8556,3.8552,3.855,3.8539,3.8544,3.8543,3.854,3.8541,3.8535,3.8534,3.8533,3.8523,3.8521,3.8515,3.8524,3.8496,3.8495,3.8495,3.849,3.8489,3.8488,0,0,0,0,0,3.8562,3.8555,3.8556,3.8555,3.8546,3.8538,3.8537,3.8536,3.854,3.8536,3.8533,3.8534,3.8517,3.8522,3.852,3.8514,3.8496,3.8496,3.8495,3.8491,3.8489,3.8488,0,0,0,0,0,0,3.8559,3.8555,3.8556,3.8547,3.8543,3.8539,3.8534,3.8535,3.8529,3.853,3.8529,3.8527,3.8517,3.8515,3.852,3.8502,3.8507,3.8506,3.8505,3.8503,3.8502,3.8503,3.8524,0,0,0,0,0,3.8557,3.8552,3.8548,3.8541,3.8539,3.8537,3.8534,3.8533,3.8529,3.8527,3.8523,3.8518,3.8511,3.8507,3.8501,3.849,3.8488,3.8484,3.8483,3.8482,3.8481,3.8473,3.8471,3.8491,3.8492,3.8492,0,0,3.8553,3.855,3.8547,3.854,3.8537,3.8531,3.8535,3.8529,3.8524,3.8526,3.8516,3.8514,3.8508,3.8497,3.8492,3.8494,3.8475,3.8481,3.848,3.8479,3.8472,3.847,3.8468,3.8491,3.8491,3.8491,0,0,3.8543,3.8541,3.8534,3.8531,3.8526,3.8524,3.8523,3.8518,3.8516,3.8507,3.8508,3.8501,3.849,3.8485,3.8482,3.8468,3.8469,3.8466,3.846,3.8452,3.8451,3.8449,3.8443,3.8441,3.8465,3.8465,3.8465,0,3.8539,3.8531,3.8531,3.8524,3.852,3.8522,3.8514,3.851,3.8503,3.85,3.8503,3.8488,3.8484,3.8472,3.8468,3.8466,3.8463,3.8467,3.8451,3.8449,3.8448,3.8443,3.844,3.8465,3.8465,3.8465,3.8465,0,3.8525,3.8519,3.8514,3.8508,3.8503,3.8496,3.8494,3.849,3.8489,3.8487,3.8477,3.8472,3.8464,3.8461,3.8461,3.8448,3.8449,3.8451,3.8456,3.8446,3.8441,3.8438,3.8464,3.8464,3.8464,3.8464,0,0,3.8513,3.8506,3.8504,3.8501,3.8495,3.849,3.8482,3.8475,3.8471,3.8465,3.8458,3.8448,3.8449,3.8445,3.8444,3.8437,3.8426,3.844,3.844,3.8437,3.841,3.8408,3.8405,3.8426,3.8426,3.8425,3.841,0,3.8502,3.849,3.8489,3.8477,3.847,3.8471,3.8464,3.8459,3.8456,3.845,3.8446,3.8439,3.8442,3.8439,3.8433,3.8429,3.842,3.843,3.8418,3.8417,3.8419,3.8403,3.8401,3.8387,3.8408,3.8408,3.8407,0,3.8488,3.8483,3.847,3.8464,3.8461,3.8455,3.8448,3.8442,3.8436,3.8434,3.8428,3.8428,3.8418,3.8423,3.8409,3.8416,3.8411,3.8408,3.8407,3.8406,3.8412,3.84,3.8383,3.838,3.8404,3.8404,3.8405,0,3.848,3.8469,3.846,3.8457,3.845,3.8446,3.8442,3.8436,3.8432,3.8425,3.8421,3.8413,3.8408,3.8401,3.8398,3.8402,3.8384,3.8389,3.8381,3.8381,3.8377,3.8377,3.8357,3.8374,3.8375,3.8375,3.8375,0,3.8467,3.8459,3.8456,3.8451,3.8441,3.844,3.843,3.8427,3.8421,3.8414,3.8413,3.8406,3.8403,3.8394,3.8392,3.838,3.8378,3.8375,3.8374,3.8375,3.8375,3.8371,3.8372,3.8374,3.8374,3.8374,3.8374,0,3.8456,3.8454,3.8444,3.8438,3.8436,3.843,3.8424,3.8418,3.8415,3.8405,3.8403,3.8398,3.8388,3.8384,3.8372,3.837,3.8356,3.8356,3.8358,3.8358,3.835,3.8351,3.8327,3.8323,3.8343,3.8343,3.8343,0,3.8449,3.8443,3.8436,3.8431,3.8428,3.8421,3.8416,3.8413,3.8408,3.84,3.8394,3.8384,3.8377,3.8361,3.8355,3.8345,3.8345,3.8337,3.8344,3.8344,3.8344,3.8344,3.8343,3.8336,3.8336,3.8336,3.8336,0,3.8435,3.8433,3.8427,3.842,3.8414,3.8408,3.8402,3.8398,3.8394,3.8388,3.8378,3.8372,3.836,3.8349,3.8339,3.8334,3.8334,3.8334,3.8331,3.8332,3.8333,3.8331,3.8355,3.8334,3.8334,3.8334,3.8335,3.8335,3.8425,3.8419,3.8413,3.8405,3.8401,3.8395,3.8388,3.8384,3.8377,3.8367,3.8365,3.8355,3.8347,3.8333,3.8327,3.8318,3.832,3.8316,3.8315,3.8315,3.8314,3.8334,3.8316,3.8316,3.8316,3.8316,3.8316,0,3.841,3.8406,3.8399,3.8391,3.8384,3.8385,3.8378,3.8372,3.8363,3.8356,3.8348,3.8336,3.8326,3.8319,3.8309,3.8302,3.8302,3.83,3.83,3.8298,3.8313,3.8316,3.83,3.83,3.83,3.83,3.83,3.83,3.8402,3.8392,3.839,3.8377,3.8372,3.8363,3.8358,3.8352,3.8347,3.8334,3.8326,3.8321,3.8314,3.8302,3.8292,3.8291,3.8286,3.8284,3.8282,3.8296,3.8297,3.8299,3.8302,3.8283,3.8283,3.8268,3.8268,3.8268]}]]